Weather History for Wink, TX

Change the Weather History Date:

Saturday, September 8, 2012

  Actual Average Record
Temperature  
Mean Temperature 72 °F -  
Max Temperature 80 °F 91 °F 101 °F (1984)
Min Temperature 64 °F 64 °F 54 °F (1957)
Cooling Degree Days 6    
Growing Degree Days 22 (Base 50)    
Moisture  
Dew Point 47 °F    
Average Humidity 42    
Maximum Humidity 67    
Minimum Humidity 25    
Precipitation  
Precipitation 0.00 in - - ()
Sea Level Pressure  
Sea Level Pressure 30.12 in    
Wind  
Wind Speed 17 mph (NE)    
Max Wind Speed 25 mph    
Max Gust Speed 41 mph    
Visibility 10 miles    
Events      
Averages and records for this station are not official NWS values.
T = Trace of Precipitation, MM = Missing Value Source: NWS Daily Summary

Daily Weather History Graph

Daily Weather History Graph

Search for Another Location

Airport:

Trip Planner

Search our weather history database for the weather conditions in past years. The results will help you decide how hot, cold, wet, or windy it might be!

Date:

Astronomy

Sep. 08, 2012 Rise Set
Actual Time 7:32 AM CDT 8:07 PM CDT
Civil Twilight 7:08 AM CDT 8:31 PM CDT
Nautical Twilight 6:39 AM CDT 9:00 PM CDT
Astronomical Twilight 6:09 AM CDT 9:29 PM CDT
Moon 12:32 AM CDT (9/8) 2:50 PM CDT (9/8)
Length of Visible Light 13h 23m
Length of Day
12h 34m
Waning Gibbous, 48% of the Moon is Illuminated
Sep 8
Waning Gibbous
Sep 15
New
Sep 22
First Quarter
Sep 29
Full
Oct 8
Last Quarter

Hourly Weather History & Observations

Time (CDT) Temp. Dew Point Humidity Pressure Visibility Wind Dir Wind Speed Gust Speed Precip Events Conditions
12:27 AM 77.0 °F 53.6 °F 44% 30.08 in 8.0 mi NE 25.3 mph 35.7 mph N/A   Overcast
12:53 AM 73.9 °F 52.0 °F 46% 29.94 in 7.0 mi NE 25.3 mph 41.4 mph N/A   Overcast
1:53 AM 72.0 °F 52.0 °F 49% 29.98 in 10.0 mi NE 18.4 mph - N/A   Overcast
2:40 AM 71.6 °F 51.8 °F 50% 30.15 in 10.0 mi NNE 23.0 mph 28.8 mph N/A   Partly Cloudy
2:53 AM 70.0 °F 51.1 °F 51% 30.01 in 10.0 mi NNE 24.2 mph 32.2 mph N/A   Partly Cloudy
3:53 AM 70.0 °F 51.1 °F 51% 30.04 in 10.0 mi NE 19.6 mph 27.6 mph N/A   Scattered Clouds
4:53 AM 69.1 °F 51.1 °F 53% 30.06 in 10.0 mi NE 12.7 mph - N/A   Mostly Cloudy
5:53 AM 68.0 °F 48.9 °F 50% 30.10 in 10.0 mi ENE 11.5 mph 25.3 mph N/A   Overcast
6:53 AM 66.9 °F 50.0 °F 54% 30.13 in 10.0 mi ENE 15.0 mph 25.3 mph N/A   Overcast
7:53 AM 64.0 °F 53.1 °F 67% 30.16 in 10.0 mi NNE 10.4 mph - N/A   Overcast
8:53 AM 64.9 °F 48.0 °F 54% 30.19 in 10.0 mi ENE 9.2 mph - N/A   Overcast
9:53 AM 68.0 °F 46.0 °F 45% 30.20 in 10.0 mi NNE 9.2 mph - N/A   Mostly Cloudy
10:53 AM 70.0 °F 45.0 °F 41% 30.20 in 10.0 mi NE 15.0 mph - N/A   Overcast
11:53 AM 73.0 °F 43.0 °F 34% 30.20 in 10.0 mi ENE 17.3 mph 23.0 mph N/A   Mostly Cloudy
12:53 PM 75.9 °F 45.0 °F 33% 30.19 in 10.0 mi NE 13.8 mph 18.4 mph N/A   Partly Cloudy
1:53 PM 75.9 °F 45.0 °F 33% 30.17 in 10.0 mi NE 15.0 mph 23.0 mph N/A   Clear
2:53 PM 79.0 °F 42.1 °F 27% 30.14 in 10.0 mi NNE 9.2 mph - N/A   Clear
3:53 PM 79.0 °F 42.1 °F 27% 30.13 in 10.0 mi NE 16.1 mph 24.2 mph N/A   Clear
4:53 PM 79.0 °F 39.9 °F 25% 30.11 in 10.0 mi NNE 13.8 mph 19.6 mph N/A   Clear
5:53 PM 77.0 °F 43.0 °F 30% 30.10 in 10.0 mi ENE 10.4 mph 18.4 mph N/A   Clear
6:53 PM 75.9 °F 43.0 °F 31% 30.11 in 10.0 mi ENE 9.2 mph - N/A   Clear
7:53 PM 73.0 °F 42.1 °F 33% 30.12 in 10.0 mi NNE 16.1 mph 20.7 mph N/A   Clear
8:53 PM 70.0 °F 39.9 °F 33% 30.14 in 10.0 mi NE 12.7 mph - N/A   Clear
9:53 PM 69.8 °F 44.6 °F 40% 30.25 in 10.0 mi NE 5.8 mph - N/A   Clear
10:53 PM 66.9 °F 46.9 °F 49% 30.16 in 10.0 mi NNE 3.5 mph - N/A   Clear
11:53 PM 66.9 °F 48.0 °F 51% 30.15 in 10.0 mi NNE 4.6 mph - N/A   Clear